Location: Northcutt
(34.7304°N, 84.4305°W)
Time: 22:26:01
(UTC+00:00)

A-11 Canister half - Pass Details

Date: 06 October 2022
Orbit: 1524 x 1685 km, 47.3° (Epoch: 05 December)

Event Time Altitude Azimuth Distance (km) Brightness Sun altitude
Rises 00:37:42 0° 301° (WNW) 4,689 12.8 -17.6°
Reaches altitude 10° 00:40:54 10° 307° (NW) 3,718 11.9 -18.2°
Maximum altitude 00:49:58 50° 21° (NNE) 1,938 9.4 -20.1°
Enters shadow 00:54:54 29° 79° (E) 2,621 9.7 -21.1°
